Flag for Venezuela Weather past 2 weeks in Barquisimeto, Venezuela

Now
82 °F

Scattered clouds.


Feels Like: 85 °F
Forecast: 66 / 89 °F
Wind: 5 mph from Southeast

Location: Barquisimeto Airport

Current Time: Jan 30, 2015 at 1:22:15 PM

Latest Report: Jan 30, 2015 at 12:30 PM


Visibility: N/A

Pressure: 30.04 "Hg

Humidity: 62%

Dew point: 68 °F

Location of BarquisimetoLocation

Historic Weather in Barquisimeto — Graph

°F

Barquisimeto temperature yesterday

Maximum temperature yesterday: 88 °F (at 2:30 PM)
Minimum temperature yesterday: 66 °F (at 5:30 AM)
Average temperature yesterday: 78 °F

Past Weeks' High & Low Weather Summary

 TemperatureHumidityPressure
High88 °F (Jan 15, 3:30 PM)94% (Jan 16, 1:30 AM)30.12 "Hg (Jan 16, 1:30 AM)
Low66 °F (Jan 28, 5:30 AM)17% (Jan 27, 6:30 PM)29.92 "Hg (Jan 20, 5:30 PM)
Average77 °F67%30.01 "Hg
* Reported Jan 15 11:30 AM — Jan 30 11:30 AM, Barquisimeto, Weather by CustomWeather, © 2014

Note: Actual official high and low records may vary slightly from our data, if they occured in-between our weather recording intervals... More about our weather records

Advertising

Barquisimeto weather history for previous 24 hours

 ConditionsComfort  
Time TempWeatherWind HumidityBarometerVisibility
11:30 AM
Jan 30
79 °FPartly sunny.6 mph61%30.04 "HgN/A
10:30 AM70 °FPartly sunny.7 mph83%30.07 "HgN/A
9:30 AM73 °FPartly sunny.3 mph74%30.07 "HgN/A
8:30 AM72 °FPartly sunny.5 mph78%30.04 "HgN/A
7:30 AM70 °FMild.7 mph78%30.01 "HgN/A
6:30 AM70 °FPartly sunny.2 mph73%30.01 "HgN/A
5:30 AM68 °FPassing clouds.3 mph88%30.01 "HgN/A
1:30 AM68 °FPassing clouds.2 mph83%30.04 "HgN/A
9:30 PM
Jan 29
73 °FPassing clouds.8 mph78%29.98 "HgN/A
8:30 PM75 °FPassing clouds.12 mph74%29.98 "HgN/A
7:30 PM77 °FWarm.No wind69%29.95 "HgN/A
5:30 PM86 °FPassing clouds.14 mph43%29.95 "HgN/A
4:30 PM88 °FPassing clouds.14 mph38%29.95 "HgN/A
3:30 PM88 °FScattered clouds.12 mph38%29.95 "HgN/A
2:30 PM88 °FScattered clouds.10 mph38%29.98 "HgN/A
1:30 PM86 °FScattered clouds.14 mph46%29.98 "HgN/A
Weather by CustomWeather, © 2014

See weather overviewHow to use our weather pages